Weather Roundup
Issued by NWS

Home | Current Version | Previous Version | Graphics & Text | Print | Product List | Glossary Off
Versions: 1 2 3 4 5 6 7 8 9 10 11 12 13 14 15 16 17 18 19 20 21 22 23 24 25 26 27 28 29 30 31 32 33 34 35 36 37 38 39 40 41 42 43 44 45 46 47 48 49 50

000
NZUS93 KARX 241510
HRRWXR

CURRENT HOURLY OBSERVATIONS ACROSS
MUCH OF THE UPPER MISSISSIPPI VALLEY
NATIONAL WEATHER SERVICE LA CROSSE WI
1000 AM CDT TUE MAY 24 2016


...SOUTHEAST MINNESOTA...


CITY           SKY/WX    TMP DP  RH WIND       PRES   REMARKS
ROCHESTER      CLOUDY    69  64  84 W9        29.91R
ROCHESTER/MAYO FAIR      68  63  83 SW3       29.90S
WINONA         CLOUDY    70  61  73 CALM      29.89F
AUSTIN         MOSUNNY   70  61  73 W10       29.90S
ALBERT LEA     MOSUNNY   70  59  68 SW8       29.90S
DODGE CENTER   CLOUDY    72  59  64 SW15      29.90R
PRESTON        CLOUDY    68  60  74 W7        29.92S
OWATONNA       CLOUDY    72  57  60 SW13      29.90R
FARIBAULT      CLOUDY    72  61  68 SW8       29.89S
$$

...ELSEWHERE IN MINNESOTA...


CITY           SKY/WX    TMP DP  RH WIND       PRES   REMARKS
MINNEAPOLIS    CLOUDY    74  62  66 W9        29.86S
INTNL FALLS    PTSUNNY   70  56  61 SW9       29.83S
DULUTH         MOSUNNY   64  57  78 E9        29.86R
RED WING       CLOUDY    73  63  68 W9        29.85S
REDWOOD FALLS  CLOUDY    70  63  78 W6        29.86S
MANKATO        CLOUDY    72  57  60 W13       29.88R
WORTHINGTON    MOSUNNY   65  62  90 S16       29.89R
FAIRMONT       MOSUNNY   70  61  73 SW12      29.88S
$$

...SOUTHWEST WISCONSIN...


CITY           SKY/WX    TMP DP  RH WIND       PRES   REMARKS
LA CROSSE      PTSUNNY   73  59  61 SW8       29.90R
PRAIRIE DU CHI PTSUNNY   71  58  64 S6        29.92S
BOSCOBEL       CLOUDY    73  58  59 S7        29.92S
LONE ROCK      CLOUDY    72  60  66 SW8       29.93R
PLATTEVILLE    CLOUDY    71  57  61 SW8       29.95R
FORT MC COY    CLOUDY    72  60  66 SW5       29.91R
MAUSTON-NEW LI CLOUDY    72  58  61 S6        29.91R
VIROQUA        PTSUNNY   70  58  65 SW8       29.93R
WIS DELLS      CLOUDY    72  54  54 SW8       29.93R
$$

...ELSEWHERE IN WISCONSIN...


CITY           SKY/WX    TMP DP  RH WIND       PRES   REMARKS
MILWAUKEE      MOSUNNY   77  54  44 S13       29.96S
MADISON        PTSUNNY   73  55  53 S7        29.94R
GREEN BAY      MOSUNNY   76  53  44 S9        29.91S
EAU CLAIRE     CLOUDY    69  62  78 SW8       29.87R
BLACK RVR FLS  PTSUNNY   73  56  57 SW5       29.90R
MEDFORD        CLOUDY    64  60  87 S6        29.91R
WAUSAU         MOSUNNY   69  59  70 S6        29.89S
WIS RAPIDS     CLOUDY    71  55  56 S8        29.92R
MARSHFIELD     CLOUDY    71  57  61 SW7       29.90R
RICE LAKE      CLOUDY    68  60  76 S5        29.89R
$$

...NORTHEAST IOWA...


CITY           SKY/WX    TMP DP  RH WIND       PRES   REMARKS
WATERLOO       NOT AVBL
DUBUQUE        RAIN      70  60  70 SW8       29.95R
DECORAH        CLOUDY    68  63  83 VRB6      29.92S
MASON CITY     MOSUNNY   69  62  78 SW9       29.92S
CHARLES CITY   CLOUDY    70  64  83 SW3       29.93R
OELWEIN        CLOUDY    73  63  68 SW12G17   29.93S
$$

...ELSEWHERE IN IOWA...


CITY           SKY/WX    TMP DP  RH WIND       PRES   REMARKS
DES MOINES     CLOUDY    68  61  78 S5        29.91S
IOWA CITY      PTSUNNY   72  61  68 S7        29.96S
FORT DODGE     PTSUNNY   66  61  82 SW8       29.91S
MARSHALLTOWN   CLOUDY    71  62  73 S8        29.90F
CEDAR RAPIDS   PTSUNNY   69  65  86 S9        29.93F
$$

...NORTHERN ILLINOIS...


CITY           SKY/WX    TMP DP  RH WIND       PRES   REMARKS
CHICAGO-OHARE  PTSUNNY   76  53  44 SW13      29.99S
CHICAGO-MIDWAY MOSUNNY   78  53  41 SW12      30.00F
MOLINE         SUNNY     76  60  57 S7        29.96R
ROCKFORD       MOSUNNY   77  58  51 S9        29.98S
PEORIA         SUNNY     76  57  51 S7        30.00S
$$

NOTE: "FAIR" INDICATES FEW OR NO CLOUDS BELOW 12,000 FEET WITH NO
SIGNIFICANT WEATHER AND/OR OBSTRUCTIONS TO VISIBILITY. WIND
SPEEDS ARE IN MILES-PER-HOUR.




USA.gov is the U.S. government's official web portal to all federal, state and local government web resources and services.